Meteo orario Alins

Oggi, 25 Ottobre, Domenica

Tempo Temperatura Precipitazioni Vento Pressione Umidità
00:00 +5°C° 0 mm 1 m/s 638 mm Hg 80%
01:00 +4°C° 0 mm 2 m/s 638 mm Hg 80%
02:00 +4°C° 0 mm 2 m/s 637 mm Hg 79%
03:00 +4°C° 0 mm 2 m/s 637 mm Hg 79%
04:00 +4°C° 0 mm 2 m/s 637 mm Hg 80%
05:00 +5°C° 0 mm 1 m/s 636 mm Hg 80%
06:00 +5°C° 0 mm 1 m/s 636 mm Hg 80%
07:00 +5°C° 0 mm 2 m/s 637 mm Hg 76%
08:00 +7°C° 0 mm 2 m/s 637 mm Hg 71%
09:00 +9°C° 0 mm 2 m/s 638 mm Hg 67%
10:00 +9°C° 0 mm 2 m/s 637 mm Hg 66%
11:00 +10°C° 0 mm 2 m/s 637 mm Hg 65%
12:00 +10°C° 0 mm 2 m/s 637 mm Hg 65%
13:00 +10°C° 0 mm 3 m/s 637 mm Hg 66%
14:00 +9°C° 0 mm 3 m/s 636 mm Hg 68%
15:00 +9°C° 0 mm 3 m/s 636 mm Hg 70%
16:00 +8°C° 0.2 mm 2 m/s 636 mm Hg 75%
17:00 +7°C° 0.2 mm 2 m/s 635 mm Hg 80%
18:00 +7°C° 0.2 mm 1 m/s 635 mm Hg 86%
19:00 +7°C° 0.9 mm 1 m/s 635 mm Hg 88%
20:00 +7°C° 0.9 mm 1 m/s 635 mm Hg 90%
21:00 +7°C° 0.9 mm 1 m/s 635 mm Hg 92%
22:00 +6°C° 0.1 mm 1 m/s 635 mm Hg 92%
23:00 +6°C° 0.1 mm 1 m/s 635 mm Hg 93%

Domani, 26 Ottobre, Lunedi

Tempo Temperatura Precipitazioni Vento Pressione Umidità
00:00 +5°C° 0.1 mm 1 m/s 635 mm Hg 93%
01:00 +5°C° 0.3 mm 1 m/s 635 mm Hg 93%
02:00 +5°C° 0.3 mm 1 m/s 634 mm Hg 94%
03:00 +4°C° 0.3 mm 1 m/s 634 mm Hg 95%
04:00 +4°C° 0.2 mm 1 m/s 634 mm Hg 94%
05:00 +3°C° 0.2 mm 1 m/s 634 mm Hg 93%
06:00 +3°C° 0.2 mm 1 m/s 634 mm Hg 93%
07:00 +4°C° 0.2 mm 1 m/s 635 mm Hg 87%
08:00 +4°C° 0.2 mm 1 m/s 635 mm Hg 82%
09:00 +5°C° 0.2 mm 1 m/s 635 mm Hg 77%
10:00 +4°C° 0.3 mm 2 m/s 636 mm Hg 74%
11:00 +5°C° 0.3 mm 2 m/s 636 mm Hg 71%
12:00 +6°C° 0.3 mm 2 m/s 636 mm Hg 68%
13:00 +6°C° 0.4 mm 2 m/s 636 mm Hg 68%
14:00 +6°C° 0.4 mm 2 m/s 636 mm Hg 67%
15:00 +5°C° 0.4 mm 2 m/s 636 mm Hg 67%
16:00 +4°C° 0.3 mm 2 m/s 636 mm Hg 73%
17:00 +3°C° 0.3 mm 2 m/s 636 mm Hg 78%
18:00 +1°C° 0.3 mm 2 m/s 636 mm Hg 84%
19:00 +1°C° 0 mm 2 m/s 636 mm Hg 84%
20:00 -1°C° 0 mm 2 m/s 636 mm Hg 83%
21:00 -1°C° 0 mm 2 m/s 637 mm Hg 83%
22:00 -1°C° 0 mm 2 m/s 637 mm Hg 81%
23:00 -1°C° 0 mm 2 m/s 637 mm Hg 80%

Dopodomani, 27 Ottobre, Martedi

Tempo Temperatura Precipitazioni Vento Pressione Umidità
00:00 +1°C° 0 mm 1 m/s 637 mm Hg 78%
01:00 +1°C° 0 mm 1 m/s 637 mm Hg 78%
02:00 +1°C° 0 mm 1 m/s 636 mm Hg 78%
03:00 0°C° 0 mm 1 m/s 636 mm Hg 79%
04:00 +1°C° 0 mm 1 m/s 636 mm Hg 78%
05:00 +1°C° 0 mm 1 m/s 636 mm Hg 76%
06:00 +1°C° 0 mm 1 m/s 636 mm Hg 75%
07:00 +2°C° 0 mm 1 m/s 637 mm Hg 71%
08:00 +4°C° 0 mm 1 m/s 637 mm Hg 67%
09:00 +6°C° 0 mm 1 m/s 638 mm Hg 62%
10:00 +6°C° 0 mm 1 m/s 638 mm Hg 60%
11:00 +7°C° 0 mm 1 m/s 638 mm Hg 58%
12:00 +7°C° 0 mm 2 m/s 638 mm Hg 57%
13:00 +7°C° 0 mm 2 m/s 638 mm Hg 57%
14:00 +7°C° 0 mm 2 m/s 638 mm Hg 58%
15:00 +7°C° 0 mm 2 m/s 638 mm Hg 58%
16:00 +7°C° 0 mm 1 m/s 638 mm Hg 64%
17:00 +6°C° 0 mm 1 m/s 637 mm Hg 70%
18:00 +5°C° 0 mm 1 m/s 637 mm Hg 76%
19:00 +5°C° 0 mm 1 m/s 637 mm Hg 78%
20:00 +5°C° 0 mm 1 m/s 637 mm Hg 80%
21:00 +5°C° 0 mm 1 m/s 637 mm Hg 81%
22:00 +5°C° 0 mm 1 m/s 637 mm Hg 82%
23:00 +5°C° 0 mm 1 m/s 637 mm Hg 82%

28 Ottobre, Mercoledi

Tempo Temperatura Precipitazioni Vento Pressione Umidità
00:00 +5°C° 0 mm 1 m/s 637 mm Hg 82%
01:00 +5°C° 0 mm 1 m/s 637 mm Hg 83%
02:00 +5°C° 0 mm 1 m/s 637 mm Hg 83%
03:00 +5°C° 0 mm 1 m/s 637 mm Hg 84%
04:00 +4°C° 0 mm 1 m/s 637 mm Hg 85%
05:00 +4°C° 0 mm 1 m/s 637 mm Hg 86%
06:00 +4°C° 0 mm 1 m/s 637 mm Hg 87%
07:00 +6°C° 0 mm 1 m/s 638 mm Hg 83%
08:00 +7°C° 0 mm 1 m/s 639 mm Hg 80%
09:00 +9°C° 0 mm 1 m/s 640 mm Hg 76%
10:00 +10°C° 0 mm 1 m/s 640 mm Hg 74%
11:00 +10°C° 0 mm 1 m/s 640 mm Hg 73%
12:00 +10°C° 0 mm 2 m/s 640 mm Hg 71%
13:00 +10°C° 0 mm 2 m/s 640 mm Hg 71%
14:00 +11°C° 0 mm 1 m/s 640 mm Hg 71%
15:00 +11°C° 0 mm 1 m/s 640 mm Hg 71%
16:00 +9°C° 0 mm 1 m/s 640 mm Hg 76%
17:00 +8°C° 0 mm 1 m/s 640 mm Hg 81%
18:00 +6°C° 0 mm 0 m/s 640 mm Hg 86%
19:00 +6°C° 0 mm 0 m/s 640 mm Hg 87%
20:00 +6°C° 0 mm 1 m/s 640 mm Hg 87%
21:00 +6°C° 0 mm 1 m/s 641 mm Hg 88%
22:00 +5°C° 0 mm 1 m/s 641 mm Hg 88%
23:00 +5°C° 0 mm 1 m/s 641 mm Hg 88%

29 Ottobre, Giovedi

Tempo Temperatura Precipitazioni Vento Pressione Umidità
00:00 +5°C° 0 mm 1 m/s 641 mm Hg 88%
01:00 +5°C° 0 mm 1 m/s 641 mm Hg 88%
02:00 +5°C° 0 mm 1 m/s 641 mm Hg 89%
03:00 +5°C° 0 mm 1 m/s 641 mm Hg 89%
04:00 +4°C° 0 mm 1 m/s 641 mm Hg 89%
05:00 +4°C° 0 mm 1 m/s 641 mm Hg 89%
06:00 +4°C° 0 mm 1 m/s 641 mm Hg 88%
07:00 +6°C° 0 mm 1 m/s 642 mm Hg 83%
08:00 +8°C° 0 mm 1 m/s 643 mm Hg 77%
09:00 +9°C° 0 mm 1 m/s 644 mm Hg 72%
10:00 +10°C° 0 mm 1 m/s 644 mm Hg 68%
11:00 +12°C° 0 mm 1 m/s 644 mm Hg 65%
12:00 +13°C° 0 mm 2 m/s 644 mm Hg 61%
13:00 +13°C° 0 mm 2 m/s 644 mm Hg 61%
14:00 +13°C° 0 mm 2 m/s 644 mm Hg 61%
15:00 +12°C° 0 mm 1 m/s 644 mm Hg 61%
16:00 +11°C° 0 mm 1 m/s 643 mm Hg 68%
17:00 +9°C° 0 mm 1 m/s 643 mm Hg 74%
18:00 +7°C° 0 mm 1 m/s 642 mm Hg 81%
19:00 +6°C° 0 mm 1 m/s 642 mm Hg 80%
20:00 +6°C° 0 mm 1 m/s 642 mm Hg 79%
21:00 +6°C° 0 mm 1 m/s 642 mm Hg 78%
22:00 +6°C° 0 mm 1 m/s 642 mm Hg 75%
23:00 +6°C° 0 mm 1 m/s 642 mm Hg 72%

30 Ottobre, Venerdi

Tempo Temperatura Precipitazioni Vento Pressione Umidità
00:00 +6°C° 0 mm 1 m/s 642 mm Hg 69%
01:00 +6°C° 0 mm 1 m/s 642 mm Hg 69%
02:00 +6°C° 0 mm 1 m/s 642 mm Hg 68%
03:00 +6°C° 0 mm 1 m/s 641 mm Hg 68%
04:00 +6°C° 0 mm 1 m/s 641 mm Hg 69%
05:00 +6°C° 0 mm 1 m/s 641 mm Hg 69%
06:00 +6°C° 0 mm 1 m/s 641 mm Hg 70%
07:00 +8°C° 0 mm 1 m/s 642 mm Hg 66%
08:00 +10°C° 0 mm 1 m/s 643 mm Hg 62%
09:00 +12°C° 0 mm 1 m/s 643 mm Hg 57%
10:00 +13°C° 0 mm 1 m/s 644 mm Hg 55%
11:00 +14°C° 0 mm 2 m/s 644 mm Hg 52%
12:00 +15°C° 0 mm 2 m/s 644 mm Hg 50%
13:00 +15°C° 0 mm 2 m/s 644 mm Hg 50%
14:00 +14°C° 0 mm 2 m/s 643 mm Hg 51%
15:00 +14°C° 0 mm 2 m/s 643 mm Hg 52%
16:00 +12°C° 0 mm 2 m/s 642 mm Hg 59%
17:00 +10°C° 0 mm 1 m/s 641 mm Hg 66%
18:00 +8°C° 0 mm 1 m/s 641 mm Hg 73%
19:00 +8°C° 0 mm 1 m/s 641 mm Hg 74%
20:00 +8°C° 0 mm 1 m/s 641 mm Hg 76%
21:00 +8°C° 0 mm 1 m/s 641 mm Hg 77%
22:00 +8°C° 0 mm 1 m/s 641 mm Hg 78%
23:00 +8°C° 0 mm 1 m/s 640 mm Hg 79%
Mostrare altro

Abbiamo bisogno del tuo consenso

Meteoprog e i nostri fornitori di servizi possono memorizzare e accedere a dati personali come cookie, identificatori di dispositivi o altre tecnologie simili sul tuo dispositivo e possono elaborare tali dati per personalizzare i contenuti e gli annunci, nonché fornire funzionalità dei social media e analizzarne il traffico.

  • Archiviare e/o accedere alle informazioni sul tuo dispositivo

    Cookie, identificatori di dispositivi o altre informazioni possono essere memorizzati o resi accessibili sul tuo dispositivo per le finalità sopra indicate.

  • Annunci e contenuti personalizzati, misurazione di annunci e contenuti, approfondimenti sul pubblico e sviluppo di prodotti

    Gli annunci e i contenuti possono essere personalizzati in base a un profilo. È possibile aggiungere più dati per personalizzare meglio annunci e contenuti. È possibile misurare il rendimento degli annunci e dei contenuti. È possibile ricavare informazioni sul pubblico che ha visto gli annunci e i contenuti. Tali dati possono essere utilizzati per sviluppare o migliorare l'esperienza, i sistemi e il software dell'utente.

Cliccando su “Accetto”, acconsenti all'uso di cookie, identificatori di dispositivo, web beacon o altre tecnologie simili. Puoi modificare le impostazioni nel browser del tuo dispositivo.

Per determinati scopi, è possibile fare affidamento su interessi legali, piuttosto che sul consenso. Puoi approfondire questo argomento consultando la nostra Informativa sulla privacy e sui cookie.